{"data":{"norad_id":68589,"epoch":"2026-09-19T23:01:48.766944Z","epoch_age_seconds":113163,"freshness":"FRESH","line1":"1 68589U 26072S   26262.95959221  .00001861  00000+0  27300-3 0  9993","line2":"2 68589  51.9046 114.1578 0001460  83.5279 276.5850 14.79941436 25463","mean_motion":14.79941436,"eccentricity":0.000146,"inclination_deg":51.9046,"raan_deg":114.1578,"arg_perigee_deg":83.5279,"mean_anomaly_deg":276.585,"bstar":0.000273,"rev_number":2546,"period_min":97.301147530003,"perigee_km":628.48588262409,"apogee_km":630.53211525578,"semimajor_km":7007.6459989399,"source":"CELESTRAK","updated_at":"2026-09-20T09:00:24.322649Z"}}